Voltar ao catálogo

NOAA 17 DEB

AtivoPO
NORAD 49487·DEBRIS·🇺🇸 United States

Lançado Jun 24, 2002 de Vandenberg Space Force Base

Loading…

Próximas Passagens (próximas 24 horas)

TLE

AtualizadoSource: Space-Track

Época: Sep 14, 2026, 09:30 UTC

1 49487U 02032DR  26257.39606477  .00007528  00000-0  11838-2 0  9998
2 49487  98.8086 304.2643 0023832  24.4625 335.7706 14.72675201289911

Acompanhe NOAA 17 DEB em tempo real com AllMySat

Download on the App Store